989  
SXUS51 KOKX 271857  
OSOOKX  
NEW YORK CITY METROPOLITAN AREA WEATHER ROUNDUP  
NATIONAL WEATHER SERVICE NEW YORK NY  
200 PM EST THU FEB 27 2020  
 
CITY SKY/WX TMP DP RH WIND PRES REMARKS  
CENTRAL PARK PTSUNNY 40 17 39 W17G35 29.59R WCI 31  
LAGUARDIA ARPT PTSUNNY 42 17 36 W32G43 29.57R  
KENNEDY INTL PTSUNNY 42 20 41 W33G45 29.58R  
NEWARK LIBERTY FAIR 42 17 36 W33G43 29.59R  
TETERBORO ARPT CLOUDY 41 22 46 W17G37 29.57R  
BRONX LEHMAN C N/A 39 19 45 NW20G35 N/A WCI 30  
QUEENS COLLEGE N/A 39 19 45 W24G38 N/A WCI 28  
BREEZY POINT N/A 41 N/A N/A W21G33 N/A  
BROOKLYN COLL N/A 41 19 42 W26G43 N/A  
STATEN ISLAND N/A 39 19 45 W25G38 N/A WCI 28  
 
>>>>>>>>>>>>>>>>>>>>>>>>>>>>>>>>> KEY <<<<<<<<<<<<<<<<<<<<<<<<<<<<<<<  
> SKY/WX - SKY CONDITION/PRESENT : R : WCI - WIND CHILL INDEX <  
> WEATHER : E : VSB - VISIBILITY IN MILES <  
> TMP - TEMPERATURE IN DEG F : M : HX - HEAT INDEX <  
> DP - DEW POINT TEMPERATURE : A : TC - TEMPERATURE IN <  
> RH - RELATIVE HUMIDITY : R : CELSIUS <  
> WIND - DIRECTION/SPEED (MPH) : K : VRB - VARIABLE WIND DIR <  
> PRES - PRESSURE (IN HG) : S : <  
>>>>>>>>>>>>>>>>>>>>>>>>>>>>>>>>> KEY <<<<<<<<<<<<<<<<<<<<<<<<<<<<<<<  
 
 
CLICK HERE TO GO TO PREVIOUS BULLETINS.

The Nexlab NY Page
The Nexlab NJ Page
The Nexlab CT Page Main Text Page